{"data":{"norad_id":56524,"epoch":"2026-09-20T12:38:57.164064Z","epoch_age_seconds":112478,"freshness":"FRESH","line1":"1 56524U 23065X   26263.52705051  .00000332  00000+0  21601-4 0  9993","line2":"2 56524  43.0036 192.4733 0001411 273.8747  86.1944 15.27577296186394","mean_motion":15.27577296,"eccentricity":0.0001411,"inclination_deg":43.0036,"raan_deg":192.4733,"arg_perigee_deg":273.8747,"mean_anomaly_deg":86.1944,"bstar":2.1601e-5,"rev_number":18639,"period_min":94.26691557741,"perigee_km":482.08907829975,"apogee_km":484.02530730096,"semimajor_km":6861.1941928004,"source":"CELESTRAK","updated_at":"2026-09-21T09:00:33.473258Z"}}